This demonstration page uses our WeatherBlox Daily Observations layout. Learn more.

Left ArrowRight Arrow

39.01783, -85.05884

Hourly Observations for September 14, 2017

Temp ( °F °C ) Dew Point ( °F °C ) Humidity (%) Winds ( mph kmh ) Pressure ( in mb ) Visibility ( mi km ) Precip ( " mm )
12:52 am 00:52 Cloudy with Drizzle 60 15.6 60 15.6 100 100 S 5 7 29.82 1010 5 8 0.01 0.25
1:52 am 01:52 Cloudy with Drizzle 60 15.6 60 15.6 100 100 S 3 6 29.81 1010 4 6 0.00 0.03
2:52 am 02:52 Cloudy 60 15.6 60 15.6 100 100 SSW 5 7 29.82 1010 10 16 0.00 0.03
3:30 am 03:30 Cloudy with Mist and Fog 60 15.6 60 15.6 100 100 Calm 29.83 1010 5 8 0.00 0.00
3:52 am 03:52 Cloudy with Mist and Fog 60 15.6 60 15.6 100 100 Calm 29.82 1010 5 8 0.00 0.00
4:40 am 04:40 Cloudy with Mist and Fog 60 15.6 60 15.6 100 100 SW 3 6 29.83 1010 3 4 0.00 0.00
4:52 am 04:52 Cloudy with Mist and Fog 60 15.6 60 15.6 100 100 SW 5 7 29.83 1010 3 4 0.00 0.00
5:31 am 05:31 Cloudy with Mist and Fog 60 15.6 60 15.6 100 100 Calm 29.85 1011 3 4 0.00 0.00
5:52 am 05:52 Cloudy with Mist and Fog 60 15.6 60 15.6 100 100 WSW 6 9 29.84 1011 6 10 0.00 0.00
6:52 am 06:52 Cloudy 60 15.6 60 15.6 100 100 Calm 29.86 1011 10 16 0.00 0.00
7:52 am 07:52 Cloudy 61 16.1 61 16.1 100 100 Calm 29.88 1012 10 16 0.00 0.00
8:52 am 08:52 Cloudy 61 16.1 61 16.1 100 100 SSW 3 6 29.90 1012 10 16 0.00 0.00
9:52 am 09:52 Cloudy 62 16.7 62 16.7 100 100 Calm 29.91 1013 10 16 0.00 0.00
10:52 am 10:52 Cloudy 64 17.8 62 16.7 93 93 SSW 5 7 29.93 1013 10 16 0.00 0.00
11:07 am 11:07 Cloudy 64 17.8 62 16.7 93 93 Calm 29.91 1013 10 16 0.00 0.00
11:48 am 11:48 Cloudy 64 18 63 17 94 94 Calm 29.91 1013 10 16 0.00 0.00
11:52 am 11:52 Cloudy 66 18.9 62 16.7 87 87 Calm 29.93 1013 10 16 0.00 0.00
12:52 pm 12:52 Cloudy 66 18.9 63 17.2 90 90 VRB 3 6 29.93 1013 10 16 0.00 0.00
1:52 pm 13:52 Cloudy 67 19.4 63 17.2 87 87 Calm 29.93 1013 10 16 0.00 0.00
2:25 pm 14:25 Cloudy 67 19.4 62 16.7 84 84 Calm 29.91 1013 10 16 0.00 0.00
2:52 pm 14:52 Cloudy 68 20 63 17.2 84 84 Calm 29.92 1013 10 16 0.00 0.00
3:31 pm 15:31 Cloudy 67 19.4 63 17.2 87 87 W 5 7 29.91 1013 10 16 0.00 0.03
3:52 pm 15:52 Cloudy 67 19.4 62 16.7 84 84 SW 3 6 29.93 1013 10 16 0.00 0.03
4:52 pm 16:52 Cloudy 70 21.1 63 17.2 79 79 SW 3 6 29.92 1013 10 16 0.00 0.00
5:52 pm 17:52 Mostly Cloudy 69 20.6 64 17.8 84 84 SW 5 7 29.93 1013 10 16 0.00 0.00
6:52 pm 18:52 Partly Cloudy 69 20.6 64 17.8 84 84 Calm 29.93 1014 10 16 0.00 0.00
7:52 pm 19:52 Partly Cloudy 67 19.4 64 17.8 91 91 Calm 29.95 1014 10 16 0.00 0.00
8:52 pm 20:52 Mostly Cloudy 65 18.3 64 17.8 97 97 Calm 29.97 1015 10 16 0.00 0.00
9:52 pm 21:52 Partly Cloudy 63 17.2 63 17.2 100 100 Calm 29.98 1015 10 16 0.00 0.00
10:52 pm 22:52 Mostly Clear with Mist and Fog 61 16.1 61 16.1 100 100 Calm 29.99 1016 6 10 0.00 0.00
11:52 pm 23:52 Partly Cloudy 60 15.6 60 15.6 100 100 Calm 30.00 1016 9 14 0.00 0.00

Powered by AerisWeather